Location: Mentone
(34.5413°N, 85.5351°W)
Time: 01:33:26
(UTC-05:00)

ADEOS Rocket - Visible Passes

Search period start: 21 April 2015 00:00
Search period end: 01 May 2015 00:00
Orbit: 858 x 1308 km, 98.7° (Epoch: 18 April)

Date Brightness Start Highest point End Pass type
(mag) Time Alt. Az. Time Alt. Az. Time Alt. Az.
21 Apr 3.9 20:18:06 10° S 20:25:13 60° W 20:31:39 10° NNW visible
22 Apr 5.5 21:16:59 10° SW 21:22:12 21° W 21:26:48 10° NW visible
23 Apr 4.1 20:26:07 10° S 20:33:01 51° W 20:39:15 10° NNW visible
24 Apr 3.3 19:37:10 10° SSE 19:44:09 69° ENE 19:50:27 10° N visible
24 Apr 5.7 21:25:37 10° SW 21:30:04 17° W 21:33:55 10° NW visible
25 Apr 4.4 20:34:11 10° S 20:40:49 43° W 20:46:47 10° NNW visible
26 Apr 3.2 19:44:57 10° SSE 19:51:54 80° ENE 19:58:09 10° N visible
26 Apr 5.8 21:34:32 10° WSW 21:37:57 14° W 21:40:46 10° WNW visible
27 Apr 4.6 20:42:20 10° SSW 20:48:38 36° W 20:54:17 10° NNW visible
28 Apr 3.3 19:52:46 10° SSE 19:59:39 88° WSW 20:05:50 10° NNW visible
28 Apr 5.9 21:44:17 10° WSW 21:45:51 11° W 21:46:49 10° W visible
29 Apr 4.9 20:50:32 10° SSW 20:56:26 30° W 21:01:43 10° NW visible
30 Apr 3.4 20:00:38 10° S 20:07:24 76° WSW 20:13:29 10° NNW visible
